Simultaneous Nadir Overpasses (SNOs) Predictions

Prediction of SNOs between NOAA-20 and AQUA Satellite Orbit:

Table of predicted SNOs for the next 14.0 days since TLE Epoch: 8/12/2023
Index Date (NOAA-20) Time (NOAA-20) Lat,Lon (NOAA-20) SZA (NOAA-20 ) Date (AQUA) Time (AQUA) Lat,Lon (AQUA) SZA (AQUA ) Distance(km) Time Diff (sec)
1 08/13/2023 09:49:51 -80.74, 123.23 104.40 08/13/2023 09:50:56 -80.74, 123.07 104.42 2.87 65
2 08/13/2023 10:40:35 80.75, -69.28 75.59 08/13/2023 10:40:19 80.76, -69.10 75.57 3.27 16
3 08/16/2023 00:25:16 -80.74, -95.75 103.60 08/16/2023 00:25:38 -80.74, -95.61 103.64 2.61 22
4 08/16/2023 01:15:57 80.81, 72.77 76.22 08/16/2023 01:14:59 80.81, 72.88 76.24 1.97 58
5 08/18/2023 14:09:55 80.74,-121.89 77.19 08/18/2023 14:10:54 80.74,-121.91 77.15 0.29 59
6 08/18/2023 15:00:38 -80.79, 46.27 102.95 08/18/2023 15:00:17 -80.79, 46.44 102.96 3.19 21
7 08/21/2023 04:45:17 80.77, 19.74 77.93 08/21/2023 04:45:32 80.77, 19.84 77.90 1.90 15
8 08/21/2023 05:35:58 -80.85,-171.38 102.32 08/21/2023 05:34:54 -80.85,-171.45 102.27 1.14 64
9 08/23/2023 18:29:58 -80.74, -6.81 101.19 08/23/2023 18:30:49 -80.74, -6.79 101.23 0.50 51



Historial Predications of SNOs between NOAA-20 and AQUA
